When you browse on this site, cookies collect data to enhance your experience and personalize the content and advertising you see.
Visit our Privacy Policy to learn more. By continuing to use the site, you agree to this use of cookies and data.
  • In Czech Republic
  • List of Countries
  • For 7 days
  • Water Temperature
  • Weather Map
  • Weather Widgets
  • user-avatar
    Login

    Hourly Weather Ikskile

    Today, 3 June, Wednesday

    Time Temperature Precipitation Wind Pressure Humidity
    00:00 +9°C° 0 mm 2 mps 756 mmHg 70%
    01:00 +9°C° 0 mm 2 mps 756 mmHg 69%
    02:00 +9°C° 0 mm 2 mps 756 mmHg 69%
    03:00 +9°C° 0 mm 2 mps 755 mmHg 71%
    04:00 +9°C° 0 mm 2 mps 755 mmHg 73%
    05:00 +9°C° 0 mm 3 mps 754 mmHg 75%
    06:00 +10°C° 0 mm 3 mps 754 mmHg 71%
    07:00 +12°C° 0 mm 3 mps 754 mmHg 67%
    08:00 +13°C° 0 mm 4 mps 754 mmHg 63%
    09:00 +13°C° 0 mm 4 mps 754 mmHg 64%
    10:00 +13°C° 0 mm 3 mps 754 mmHg 66%
    11:00 +13°C° 0 mm 3 mps 754 mmHg 68%
    12:00 +14°C° 0.1 mm 3 mps 754 mmHg 66%
    13:00 +16°C° 0.1 mm 3 mps 753 mmHg 64%
    14:00 +17°C° 0.1 mm 3 mps 753 mmHg 62%
    15:00 +17°C° 0.2 mm 3 mps 753 mmHg 61%
    16:00 +18°C° 0.2 mm 3 mps 752 mmHg 60%
    17:00 +18°C° 0.2 mm 3 mps 752 mmHg 59%
    18:00 +17°C° 0 mm 2 mps 752 mmHg 64%
    19:00 +16°C° 0 mm 2 mps 751 mmHg 70%
    20:00 +15°C° 0 mm 2 mps 751 mmHg 76%
    21:00 +14°C° 0 mm 2 mps 751 mmHg 82%
    22:00 +12°C° 0 mm 2 mps 751 mmHg 88%
    23:00 +10°C° 0 mm 2 mps 751 mmHg 94%

    Tomorrow, 4 June, Thursday

    Time Temperature Precipitation Wind Pressure Humidity
    00:00 +10°C° 0 mm 2 mps 751 mmHg 95%
    01:00 +9°C° 0 mm 2 mps 751 mmHg 96%
    02:00 +9°C° 0 mm 2 mps 751 mmHg 97%
    03:00 +9°C° 0 mm 2 mps 750 mmHg 97%
    04:00 +9°C° 0 mm 2 mps 750 mmHg 97%
    05:00 +9°C° 0 mm 2 mps 749 mmHg 96%
    06:00 +10°C° 0 mm 2 mps 749 mmHg 91%
    07:00 +13°C° 0 mm 2 mps 749 mmHg 85%
    08:00 +14°C° 0 mm 2 mps 749 mmHg 80%
    09:00 +15°C° 0 mm 2 mps 748 mmHg 73%
    10:00 +17°C° 0 mm 2 mps 748 mmHg 66%
    11:00 +19°C° 0 mm 2 mps 747 mmHg 59%
    12:00 +19°C° 0.1 mm 2 mps 747 mmHg 58%
    13:00 +20°C° 0.1 mm 2 mps 747 mmHg 57%
    14:00 +20°C° 0.1 mm 2 mps 747 mmHg 56%
    15:00 +20°C° 0.3 mm 2 mps 746 mmHg 59%
    16:00 +19°C° 0.3 mm 2 mps 746 mmHg 63%
    17:00 +19°C° 0.3 mm 2 mps 746 mmHg 66%
    18:00 +18°C° 0.2 mm 2 mps 745 mmHg 74%
    19:00 +16°C° 0.2 mm 1 mps 745 mmHg 81%
    20:00 +15°C° 0.2 mm 1 mps 745 mmHg 89%
    21:00 +14°C° 0 mm 1 mps 745 mmHg 91%
    22:00 +13°C° 0 mm 1 mps 745 mmHg 93%
    23:00 +12°C° 0 mm 1 mps 745 mmHg 95%

    Day after tomorrow, 5 June, Friday

    Time Temperature Precipitation Wind Pressure Humidity
    00:00 +11°C° 0 mm 1 mps 745 mmHg 95%
    01:00 +11°C° 0 mm 1 mps 745 mmHg 95%
    02:00 +11°C° 0 mm 1 mps 745 mmHg 96%
    03:00 +11°C° 0 mm 1 mps 745 mmHg 96%
    04:00 +11°C° 0 mm 1 mps 745 mmHg 95%
    05:00 +11°C° 0 mm 1 mps 745 mmHg 95%
    06:00 +12°C° 0 mm 2 mps 745 mmHg 90%
    07:00 +14°C° 0 mm 2 mps 745 mmHg 84%
    08:00 +16°C° 0 mm 2 mps 746 mmHg 78%
    09:00 +17°C° 0 mm 2 mps 746 mmHg 68%
    10:00 +19°C° 0 mm 3 mps 746 mmHg 58%
    11:00 +21°C° 0 mm 3 mps 746 mmHg 49%
    12:00 +22°C° 0 mm 3 mps 746 mmHg 46%
    13:00 +22°C° 0 mm 3 mps 745 mmHg 43%
    14:00 +23°C° 0 mm 4 mps 745 mmHg 40%
    15:00 +24°C° 0 mm 3 mps 745 mmHg 41%
    16:00 +24°C° 0 mm 3 mps 745 mmHg 42%
    17:00 +24°C° 0 mm 3 mps 745 mmHg 43%
    18:00 +22°C° 0 mm 3 mps 745 mmHg 50%
    19:00 +20°C° 0 mm 3 mps 745 mmHg 57%
    20:00 +19°C° 0 mm 3 mps 745 mmHg 65%
    21:00 +18°C° 0 mm 4 mps 744 mmHg 66%
    22:00 +17°C° 0 mm 4 mps 744 mmHg 67%
    23:00 +16°C° 0 mm 5 mps 744 mmHg 68%

    6 June, Saturday

    Time Temperature Precipitation Wind Pressure Humidity
    00:00 +16°C° 0 mm 5 mps 744 mmHg 73%
    01:00 +16°C° 0 mm 5 mps 744 mmHg 78%
    02:00 +16°C° 0 mm 5 mps 744 mmHg 83%
    03:00 +16°C° 0 mm 5 mps 744 mmHg 85%
    04:00 +17°C° 0 mm 4 mps 743 mmHg 87%
    05:00 +17°C° 0 mm 4 mps 743 mmHg 90%
    06:00 +15°C° 2 mm 4 mps 743 mmHg 92%
    07:00 +14°C° 2 mm 4 mps 744 mmHg 94%
    08:00 +13°C° 2 mm 4 mps 744 mmHg 96%
    09:00 +13°C° 1.5 mm 4 mps 744 mmHg 93%
    10:00 +13°C° 1.5 mm 3 mps 745 mmHg 91%
    11:00 +13°C° 1.5 mm 3 mps 745 mmHg 88%
    12:00 +15°C° 0.1 mm 4 mps 746 mmHg 79%
    13:00 +17°C° 0.1 mm 5 mps 746 mmHg 69%
    14:00 +20°C° 0.1 mm 7 mps 747 mmHg 60%
    15:00 +19°C° 0.4 mm 6 mps 747 mmHg 61%
    16:00 +17°C° 0.4 mm 5 mps 748 mmHg 63%
    17:00 +17°C° 0.4 mm 5 mps 749 mmHg 65%
    18:00 +17°C° 0.1 mm 4 mps 749 mmHg 69%
    19:00 +16°C° 0.1 mm 3 mps 750 mmHg 73%
    20:00 +15°C° 0.1 mm 2 mps 750 mmHg 77%
    21:00 +14°C° 0 mm 2 mps 751 mmHg 81%
    22:00 +12°C° 0 mm 3 mps 751 mmHg 85%
    23:00 +11°C° 0 mm 3 mps 752 mmHg 89%

    7 June, Sunday

    Time Temperature Precipitation Wind Pressure Humidity
    00:00 +11°C° 0 mm 3 mps 752 mmHg 87%
    01:00 +11°C° 0 mm 3 mps 753 mmHg 85%
    02:00 +11°C° 0 mm 3 mps 753 mmHg 83%
    03:00 +10°C° 0 mm 3 mps 753 mmHg 85%
    04:00 +10°C° 0 mm 3 mps 754 mmHg 87%
    05:00 +10°C° 0 mm 2 mps 754 mmHg 90%
    06:00 +12°C° 0 mm 3 mps 755 mmHg 83%
    07:00 +14°C° 0 mm 3 mps 755 mmHg 76%
    08:00 +17°C° 0 mm 3 mps 755 mmHg 69%
    09:00 +17°C° 0.2 mm 3 mps 755 mmHg 75%
    10:00 +16°C° 0.2 mm 3 mps 756 mmHg 82%
    11:00 +16°C° 0.2 mm 3 mps 756 mmHg 88%
    12:00 +18°C° 0.2 mm 3 mps 756 mmHg 81%
    13:00 +20°C° 0.2 mm 3 mps 756 mmHg 73%
    14:00 +22°C° 0.2 mm 4 mps 755 mmHg 66%
    15:00 +24°C° 0.6 mm 3 mps 755 mmHg 69%
    16:00 +24°C° 0.6 mm 3 mps 755 mmHg 72%
    17:00 +24°C° 0.6 mm 2 mps 754 mmHg 75%
    18:00 +23°C° 0.3 mm 2 mps 754 mmHg 78%
    19:00 +21°C° 0.3 mm 2 mps 754 mmHg 81%
    20:00 +20°C° 0.3 mm 1 mps 753 mmHg 84%
    21:00 +19°C° 0.1 mm 1 mps 753 mmHg 87%
    22:00 +18°C° 0.1 mm 2 mps 753 mmHg 91%
    23:00 +17°C° 0.1 mm 2 mps 753 mmHg 94%

    8 June, Monday

    Time Temperature Precipitation Wind Pressure Humidity
    00:00 +17°C° 0.1 mm 2 mps 753 mmHg 95%
    01:00 +16°C° 0.1 mm 1 mps 753 mmHg 96%
    02:00 +16°C° 0.1 mm 1 mps 753 mmHg 97%
    03:00 +16°C° 0.7 mm 1 mps 753 mmHg 97%
    04:00 +16°C° 0.7 mm 1 mps 753 mmHg 98%
    05:00 +16°C° 0.7 mm 1 mps 753 mmHg 98%
    06:00 +18°C° 0.8 mm 1 mps 754 mmHg 97%
    07:00 +18°C° 0.8 mm 1 mps 754 mmHg 96%
    08:00 +19°C° 0.8 mm 1 mps 754 mmHg 95%
    09:00 +19°C° 0.1 mm 1 mps 755 mmHg 93%
    10:00 +18°C° 0.1 mm 2 mps 755 mmHg 91%
    11:00 +19°C° 0.1 mm 2 mps 755 mmHg 89%
    12:00 +20°C° 0 mm 2 mps 755 mmHg 81%
    13:00 +21°C° 0 mm 3 mps 755 mmHg 74%
    14:00 +24°C° 0 mm 3 mps 756 mmHg 66%
    15:00 +22°C° 0 mm 3 mps 756 mmHg 67%
    16:00 +22°C° 0 mm 3 mps 756 mmHg 68%
    17:00 +21°C° 0 mm 4 mps 756 mmHg 69%
    18:00 +20°C° 0.1 mm 3 mps 756 mmHg 73%
    19:00 +19°C° 0.1 mm 3 mps 756 mmHg 77%
    20:00 +17°C° 0.1 mm 3 mps 756 mmHg 81%
    21:00 +17°C° 0 mm 2 mps 756 mmHg 84%
    22:00 +16°C° 0 mm 2 mps 756 mmHg 87%
    23:00 +16°C° 0 mm 2 mps 756 mmHg 90%
    Show more